Change the Weather History Date:

Tuesday, August 20, 2013

  Actual Average (KPCZ) Record (KPCZ)
Temperature  
Mean Temperature 72 °F -  
Max Temperature 90 °F 78 °F 98 °F (1955)
Min Temperature 56 °F 55 °F 40 °F (1950)
Cooling Degree Days 7    
Growing Degree Days 22 (Base 50)    
Moisture  
Dew Point 62 °F    
Average Humidity 71    
Maximum Humidity 100    
Minimum Humidity 40    
Precipitation  
Precipitation 0.00 in - - ()
Sea Level Pressure  
Sea Level Pressure 30.00 in    
Wind  
Wind Speed 3 mph (SSW)    
Max Wind Speed 13 mph    
Max Gust Speed 18 mph    
Visibility 9 miles    
Events      
Averages and records for this station are not official NWS values.
T = Trace of Precipitation, MM = Missing Value Source: NWS Daily Summary

Daily Weather History Graph

Daily Weather History Graph

Search for Another Location

Airport or City:

Trip Planner

Search our weather history database for the weather conditions in past years. The results will help you decide how hot, cold, wet, or windy it might be!

Date:

Astronomy

Aug. 20, 2013 Rise Set
Actual Time 6:06 AM CDT 7:53 PM CDT
Civil Twilight 5:36 AM CDT 8:23 PM CDT
Nautical Twilight 4:58 AM CDT 9:01 PM CDT
Astronomical Twilight 4:17 AM CDT 9:41 PM CDT
Moon 7:22 PM CDT (8/20) 5:37 AM CDT (8/20)
Length of Visible Light 14h 47m
Length of Day
13h 46m
Full, 100% of the Moon is Illuminated
Aug 20
Full
Aug 20
Full
Aug 28
Last Quarter
Sep 5
New
Sep 12
First Quarter

Hourly Weather History & Observations

Time (CDT) Temp. Heat Index Dew Point Humidity Pressure Visibility Wind Dir Wind Speed Gust Speed Precip Events Conditions
12:56 AM 59.9 °F - 59.9 °F 100% 30.01 in 7.0 mi Calm Calm - N/A   Clear
1:56 AM 59.0 °F - 59.0 °F 100% 30.01 in 5.0 mi Calm Calm - N/A   Clear
2:56 AM 57.9 °F - 57.9 °F 100% 30.01 in 9.0 mi Calm Calm - N/A   Clear
3:56 AM 56.8 °F - 56.8 °F 100% 30.01 in 7.0 mi Calm Calm - N/A   Clear
4:56 AM 57.9 °F - 57.9 °F 100% 30.01 in 10.0 mi Calm Calm - N/A   Overcast
5:56 AM 56.8 °F - 56.8 °F 100% 30.03 in 8.0 mi Calm Calm - N/A   Clear
6:56 AM 59.0 °F - 59.0 °F 100% 30.06 in 10.0 mi Calm Calm - N/A   Overcast
7:56 AM 64.9 °F - 64.9 °F 100% 30.05 in 10.0 mi Calm Calm - N/A   Mostly Cloudy
8:56 AM 70.9 °F - 64.9 °F 81% 30.04 in 10.0 mi South 5.8 mph - N/A   Scattered Clouds
9:56 AM 77.0 °F - 64.9 °F 66% 30.04 in 10.0 mi SW 5.8 mph - N/A   Clear
10:56 AM 82.9 °F 84.6 °F 64.9 °F 54% 30.03 in 10.0 mi Variable 5.8 mph - N/A   Clear
11:56 AM 86.0 °F 87.6 °F 64.9 °F 49% 30.02 in 10.0 mi SSW 11.5 mph - N/A   Clear
12:56 PM 86.9 °F 87.8 °F 63.0 °F 45% 30.01 in 10.0 mi South 12.7 mph 18.4 mph N/A   Clear
1:56 PM 88.9 °F 89.7 °F 63.0 °F 42% 30.00 in 10.0 mi SSW 11.5 mph - N/A   Partly Cloudy
2:56 PM 88.9 °F 89.1 °F 61.9 °F 40% 29.99 in 10.0 mi WSW 11.5 mph - N/A   Mostly Cloudy
3:56 PM 86.9 °F 87.8 °F 63.0 °F 45% 29.97 in 10.0 mi South 11.5 mph - N/A   Mostly Cloudy
4:56 PM 86.9 °F 87.8 °F 63.0 °F 45% 29.97 in 10.0 mi SSW 12.7 mph - N/A   Mostly Cloudy
5:56 PM 86.0 °F 86.8 °F 63.0 °F 46% 29.97 in 10.0 mi South 10.4 mph - N/A   Clear
6:56 PM 83.8 °F 85.1 °F 63.9 °F 51% 29.96 in 10.0 mi South 6.9 mph - N/A   Clear
7:56 PM 79.9 °F - 63.9 °F 58% 29.96 in 10.0 mi South 4.6 mph - N/A   Clear
8:56 PM 77.0 °F - 63.9 °F 64% 29.98 in 10.0 mi South 4.6 mph - N/A   Clear
9:56 PM 75.9 °F - 64.9 °F 69% 29.99 in 10.0 mi South 4.6 mph - N/A   Clear
10:56 PM 73.9 °F - 64.9 °F 73% 29.99 in 10.0 mi Calm Calm - N/A   Partly Cloudy
11:56 PM 70.9 °F - 64.9 °F 81% 29.99 in 10.0 mi Calm Calm - N/A   Mostly Cloudy